| time (UTC) | temp C | wind direction | speed KPH | gust KPH | rain 1hr cm | rain 24hr cm | rain mn cm | humidity % | barometer mb |
| 20260504081525 | 9 | 186 | 1.6 | 6.4 | 0.00 | 0.00 | 0.00 | 75 | 1003.8 |
| 20260504044548 | 15 | 222 | 3.2 | 9.7 | 0.00 | 0.00 | 0.00 | 52 | 1005.7 |
| 20260504043042 | 15 | 218 | 4.8 | 9.7 | 0.00 | 0.00 | 0.00 | 52 | 1005.8 |
| 20260504011533 | 20 | 220 | 1.6 | 11.3 | 0.00 | 0.00 | 0.00 | 43 | 1005.1 |
| 20260504010031 | 20 | 212 | 9.7 | 17.7 | 0.00 | 0.00 | 0.00 | 42 | 1004.9 |
| 20260504004536 | 21 | 233 | 11.3 | 20.9 | 0.00 | 0.00 | 0.00 | 41 | 1004.9 |
| 20260504003034 | 21 | 201 | 12.9 | 27.4 | 0.00 | 0.00 | 0.00 | 40 | 1004.8 |
| 20260504001529 | 21 | 261 | 11.3 | 27.4 | 0.00 | 0.00 | 0.00 | 40 | 1004.8 |
| 20260504000028 | 22 | 197 | 11.3 | 30.6 | 0.00 | 0.00 | 0.00 | 40 | 1004.7 |
| 20260503234538 | 22 | 202 | 17.7 | 32.2 | 0.00 | 0.00 | 0.00 | 40 | 1004.7 |
| 20260503233025 | 21 | 226 | 14.5 | 30.6 | 0.00 | 0.00 | 0.00 | 41 | 1004.8 |
| 20260503231524 | 21 | 237 | 17.7 | 30.6 | 0.00 | 0.00 | 0.00 | 41 | 1005.0 |
| 20260503230022 | 22 | 225 | 16.1 | 37.0 | 0.00 | 0.00 | 0.00 | 42 | 1005.2 |
| 20260503224521 | 22 | 205 | 16.1 | 32.2 | 0.00 | 0.00 | 0.00 | 41 | 1005.0 |
| 20260503223023 | 22 | 195 | 22.5 | 40.2 | 0.00 | 0.00 | 0.00 | 40 | 1005.1 |
| 20260503221518 | 22 | 222 | 17.7 | 40.2 | 0.00 | 0.00 | 0.00 | 38 | 1005.1 |
| 20260503220018 | 22 | 210 | 19.3 | 37.0 | 0.00 | 0.00 | 0.00 | 38 | 1005.1 |
| 20260503214517 | 22 | 260 | 20.9 | 35.4 | 0.00 | 0.00 | 0.00 | 38 | 1005.2 |
| 20260503213016 | 22 | 202 | 20.9 | 33.8 | 0.00 | 0.00 | 0.00 | 39 | 1005.1 |
| 20260503211513 | 22 | 226 | 14.5 | 30.6 | 0.00 | 0.00 | 0.00 | 38 | 1005.4 |
| 20260503210012 | 22 | 212 | 19.3 | 35.4 | 0.00 | 0.00 | 0.00 | 38 | 1005.6 |
| 20260503204510 | 22 | 249 | 16.1 | 38.6 | 0.00 | 0.00 | 0.00 | 39 | 1005.8 |
| 20260503203011 | 22 | 267 | 16.1 | 40.2 | 0.00 | 0.00 | 0.00 | 39 | 1005.9 |
| 20260503201505 | 21 | 197 | 14.5 | 35.4 | 0.00 | 0.00 | 0.00 | 40 | 1006.0 |
| 20260503200002 | 21 | 212 | 12.9 | 27.4 | 0.00 | 0.00 | 0.00 | 42 | 1006.2 |
| 20260503194600 | 21 | 226 | 16.1 | 35.4 | 0.00 | 0.00 | 0.00 | 42 | 1006.5 |
| 20260503193100 | 21 | 257 | 14.5 | 35.4 | 0.00 | 0.00 | 0.00 | 43 | 1006.7 |
| 20260503191612 | 20 | 207 | 22.5 | 37.0 | 0.00 | 0.00 | 0.00 | 41 | 1006.8 |
| 20260503190051 | 20 | 170 | 16.1 | 38.6 | 0.00 | 0.00 | 0.00 | 41 | 1006.8 |
| 20260503184556 | 20 | 192 | 20.9 | 35.4 | 0.00 | 0.00 | 0.00 | 44 | 1007.0 |
| 20260503183100 | 20 | 225 | 17.7 | 33.8 | 0.00 | 0.00 | 0.00 | 44 | 1007.3 |
| 20260503181543 | 19 | 206 | 20.9 | 35.4 | 0.00 | 0.00 | 0.00 | 43 | 1007.6 |
| 20260503180044 | 18 | 240 | 19.3 | 38.6 | 0.00 | 0.00 | 0.00 | 47 | 1007.6 |
| 20260503174536 | 18 | 220 | 22.5 | 38.6 | 0.00 | 0.00 | 0.00 | 46 | 1008.0 |
| 20260503173059 | 17 | 214 | 25.7 | 43.5 | 0.00 | 0.00 | 0.00 | 45 | 1008.4 |
| 20260503171529 | 17 | 216 | 19.3 | 41.8 | 0.00 | 0.00 | 0.00 | 45 | 1008.5 |